CAPE
785 915 956 944 892 653 616 789 786 687 499 509 470 334 361 267 56 88 365 362 157 1 0 0 0 0 0 0 0 0 0 0
795 845 529 882 908 365 312 313 269 264 398 318 223 283 246 87 11 170 354 253 72 0 0 0 0 0 0 0 0 0 0 0
766 596 257 165 188 178 97 22 22 122 201 261 179 320 99 0 0 160 253 89 16 0 0 0 0 0 0 0 0 0 0 0
277 220 62 125 74 28 4 3 3 13 128 238 204 103 20 0 0 41 119 80 45 0 0 0 0 0 0 0 0 0 0 0
230 110 92 45 75 42 49 12 6 23 86 153 117 35 12 3 0 0 48 73 10 0 0 0 0 0 0 0 0 0 1 1
193 136 96 42 64 35 32 15 8 38 145 205 94 12 0 4 0 0 0 17 46 0 0 0 0 0 0 0 0 0 0 3
84 78 64 61 29 46 17 17 10 52 119 146 33 2 0 0 0 0 0 0 0 0 0 0 0 0 0 0 0 0 0 2
46 36 81 48 33 55 24 1 83 96 103 118 59 2 27 0 1 0 0 0 0 0 0 0 0 0 0 0 0 0 0 0
25 13 27 44 39 45 26 4 19 47 72 58 43 25 32 3 0 0 0 0 0 0 0 0 0 0 0 0 0 0 0 0
20 5 8 31 21 39 12 54 50 90 84 82 40 49 21 5 0 0 0 0 2 2 0 1 1 0 0 0 0 0 0 0
3 7 14 10 22 37 10 47 7 8 21 41 31 26 29 19 1 0 0 9 8 13 10 15 13 3 2 0 0 0 0 0
2 8 18 23 38 21 18 18 15 4 21 34 68 38 25 34 28 11 13 25 20 27 59 45 36 37 25 10 6 1 0 0
1 7 6 1 28 22 32 2 2 16 22 45 89 26 41 31 17 32 39 19 33 37 70 85 82 68 56 33 1 8 0 0
0 2 0 11 10 1 7 8 10 3 5 19 56 40 50 52 33 57 32 76 78 35 74 103 102 86 93 88 50 16 15 8
1 0 1 0 0 3 14 19 3 1 5 2 45 38 63 71 67 117 102 123 130 100 61 79 151 123 118 91 67 18 6 5
9 0 0 0 5 8 8 16 0 0 2 22 23 26 72 115 132 135 121 176 184 101 115 155 162 153 119 77 53 34 37 0
10 10 0 0 0 2 2 9 6 2 5 16 0 0 50 75 127 103 136 101 120 198 116 87 113 129 114 97 35 4 4 9
9 0 0 0 0 0 0 1 3 6 12 8 2 4 33 19 61 145 204 176 206 202 146 110 81 42 59 67 57 38 8 11
0 0 0 0 0 0 0 0 0 1 1 3 2 13 7 17 77 78 89 60 96 123 128 110 101 87 48 36 47 54 30 15
0 0 0 0 0 0 0 0 0 0 0 1 1 1 5 0 10 18 30 36 55 92 122 120 115 123 69 24 13 32 0 38
CIN
-33 -32 -6 -6 -2 -30 -37 -9 -2 -2 -3 -1 -8 -2 -3 -1 -14 -1 -0 0 -4 -1 0 0 0 0 0 0 0 0 0 0
-5 -4 -23 0 -2 -26 -23 -6 -15 -7 -3 -3 -10 -5 -3 -6 -8 -4 -0 -26 -8 0 0 0 0 0 0 0 0 0 0 0
-2 -0 -30 -16 -19 -4 -0 -9 -18 -7 -6 -8 -10 -2 -8 0 0 -9 -9 -22 -29 0 0 0 0 0 0 0 0 0 0 0
-39 -13 -0 0 0 0 -0 0 -0 -6 -7 -0 -2 -35 -66 0 0 -28 -24 -26 -43 0 0 0 0 0 0 0 0 0 0 0
-17 -31 -11 -10 -14 -26 -6 -20 -8 -9 -6 -2 -5 -74 -105 -139 0 0 -31 -16 -34 0 0 0 0 0 0 0 0 0 0 0
-6 -1 -1 0 -2 -1 -1 0 -0 -9 -16 -5 -61 -87 0 -185 0 0 0 -59 -45 0 0 0 0 0 0 0 0 0 0 0
-14 -2 -1 0 -15 -3 -1 -0 -0 -10 -14 -22 -107 -109 0 -0 0 0 0 0 0 0 0 0 0 0 0 0 0 0 0 0
-29 0 -3 -12 -11 -0 -0 0 -1 -5 -24 -70 -111 -57 -122 0 -63 0 0 0 0 0 0 0 0 0 0 0 0 0 0 0
-3 -21 -7 -1 -0 -0 -0 -0 -5 -12 -32 -87 -145 -119 -122 -170 0 0 0 0 0 0 0 0 0 0 0 0 0 0 0 0
0 0 -14 -1 -0 0 0 -0 -1 -1 -3 -35 -163 -133 -156 -181 0 0 0 -1 -100 -102 -22 -115 -91 0 0 0 0 0 0 0
0 0 -0 -2 -1 0 0 -0 0 0 -22 -39 -79 -153 -150 -162 -106 -7 0 -87 -65 -81 -80 -73 -81 -87 -110 0 0 0 0 0
-4 0 -6 -0 -0 -1 0 0 0 -0 -10 -40 -50 -128 -175 -180 -165 -83 -29 -170 -52 -62 -49 -49 -48 -42 -38 -56 -97 -101 -0 0
0 0 -0 0 0 -0 -0 0 -0 -1 -27 -40 -19 -150 -160 -180 -173 -152 -178 -163 -153 -167 -41 -41 -30 -24 -18 -30 -15 -51 -0 0
0 -1 0 -9 0 0 -0 -0 0 -0 0 -1 -11 -132 -140 -147 -169 -114 -157 -122 -133 -26 -48 -48 -27 -20 -18 -5 -7 -42 -53 -17
0 0 0 -0 -0 0 -1 0 0 0 -0 0 -3 -33 -107 -130 -157 -96 -104 -97 -143 -151 -44 -46 -19 -13 -8 -5 -8 -33 -42 -33
0 0 0 0 0 0 0 -0 0 0 -1 0 0 -25 -98 -90 -105 -105 -139 -110 -105 -123 -102 -33 -23 -24 -15 -27 -16 -16 -1 0
0 0 0 0 0 0 0 0 0 0 -0 -2 0 0 -28 -32 -88 -132 -62 -152 -112 -81 -108 -47 -37 -26 -15 -10 -9 -6 -10 -5
0 0 0 0 0 0 0 -0 -3 0 -1 -0 0 -1 -13 -2 -60 -49 -78 -94 -64 -71 -77 -67 -100 -63 -30 -14 -12 -6 -3 -7
0 0 0 0 0 0 0 0 0 -16 0 0 0 -3 -4 -94 -82 -86 -97 -97 -93 -79 -61 -64 -54 -55 -64 -30 -11 -0 0 -0
0 0 0 0 0 0 0 0 0 0 -1 -14 -10 -36 -41 0 -107 -98 -89 -103 -82 -80 -69 -66 -67 -36 -48 -43 -17 -3 0 0
Wind_Speed
21 23 23 24 26 30 30 34 31 39 34 31 36 32 32 30 nan nan 26 30 31 nan nan nan nan nan nan nan nan nan nan nan
23 19 24 20 21 31 31 35 38 36 28 27 37 35 38 nan nan 28 31 28 nan nan nan nan nan nan nan nan nan nan nan nan
17 22 29 37 26 36 nan nan nan 37 23 27 39 40 nan nan nan 31 30 nan nan nan nan nan nan nan nan nan nan nan nan nan
25 24 nan 23 nan nan nan nan nan nan 20 25 24 33 nan nan nan nan 32 nan nan nan nan nan nan nan nan nan nan nan nan nan
22 20 nan nan nan nan nan nan nan nan nan 32 34 nan nan nan nan nan nan nan nan nan nan nan nan nan nan nan nan nan nan nan
16 16 nan nan nan nan nan nan nan nan 26 31 nan nan nan nan nan nan nan nan nan nan nan nan nan nan nan nan nan nan nan nan
nan nan nan nan nan nan nan nan nan nan 17 16 nan nan nan nan nan nan nan nan nan nan nan nan nan nan nan nan nan nan nan nan
nan nan nan nan nan nan nan nan nan nan 18 15 nan nan nan nan nan nan nan nan nan nan nan nan nan nan nan nan nan nan nan nan
nan nan nan nan nan nan nan nan nan nan nan nan nan nan nan nan nan nan nan nan nan nan nan nan nan nan nan nan nan nan nan nan
nan nan nan nan nan nan nan nan nan nan nan nan nan nan nan nan nan nan nan nan nan nan nan nan nan nan nan nan nan nan nan nan
nan nan nan nan nan nan nan nan nan nan nan nan nan nan nan nan nan nan nan nan nan nan nan nan nan nan nan nan nan nan nan nan
nan nan nan nan nan nan nan nan nan nan nan nan nan nan nan nan nan nan nan nan nan nan nan nan nan nan nan nan nan nan nan nan
nan nan nan nan nan nan nan nan nan nan nan nan nan nan nan nan nan nan nan nan nan nan nan nan nan nan nan nan nan nan nan nan
nan nan nan nan nan nan nan nan nan nan nan nan nan nan nan nan nan nan nan nan nan nan nan 28 29 nan nan nan nan nan nan nan
nan nan nan nan nan nan nan nan nan nan nan nan nan nan nan nan nan 32 27 28 34 27 nan nan 25 18 22 nan nan nan nan nan
nan nan nan nan nan nan nan nan nan nan nan nan nan nan nan 28 29 28 27 31 24 15 19 22 23 17 21 nan nan nan nan nan
nan nan nan nan nan nan nan nan nan nan nan nan nan nan nan nan 28 33 20 27 19 20 19 nan 19 19 21 nan nan nan nan nan
nan nan nan nan nan nan nan nan nan nan nan nan nan nan nan nan nan 13 16 17 15 17 19 17 nan nan nan nan nan nan nan nan
nan nan nan nan nan nan nan nan nan nan nan nan nan nan nan nan nan nan nan nan nan 20 22 22 24 nan nan nan nan nan nan nan
nan nan nan nan nan nan nan nan nan nan nan nan nan nan nan nan nan nan nan nan nan nan 23 23 22 19 nan nan nan nan nan nan
Wind_Direction
272 283 281 272 276 274 280 284 287 282 274 250 250 244 246 248 nan nan 272 276 283 nan nan nan nan nan nan nan nan nan nan nan
258 262 249 255 259 273 269 273 282 282 254 244 247 241 250 nan nan 260 275 279 nan nan nan nan nan nan nan nan nan nan nan nan
288 273 256 247 243 264 nan nan nan 257 259 261 236 229 nan nan nan 264 273 nan nan nan nan nan nan nan nan nan nan nan nan nan
290 282 nan 250 nan nan nan nan nan nan 243 244 237 243 nan nan nan nan 273 nan nan nan nan nan nan nan nan nan nan nan nan nan
312 317 nan nan nan nan nan nan nan nan nan 257 258 nan nan nan nan nan nan nan nan nan nan nan nan nan nan nan nan nan nan nan
326 327 nan nan nan nan nan nan nan nan 265 265 nan nan nan nan nan nan nan nan nan nan nan nan nan nan nan nan nan nan nan nan
nan nan nan nan nan nan nan nan nan nan 232 253 nan nan nan nan nan nan nan nan nan nan nan nan nan nan nan nan nan nan nan nan
nan nan nan nan nan nan nan nan nan nan 211 232 nan nan nan nan nan nan nan nan nan nan nan nan nan nan nan nan nan nan nan nan
nan nan nan nan nan nan nan nan nan nan nan nan nan nan nan nan nan nan nan nan nan nan nan nan nan nan nan nan nan nan nan nan
nan nan nan nan nan nan nan nan nan nan nan nan nan nan nan nan nan nan nan nan nan nan nan nan nan nan nan nan nan nan nan nan
nan nan nan nan nan nan nan nan nan nan nan nan nan nan nan nan nan nan nan nan nan nan nan nan nan nan nan nan nan nan nan nan
nan nan nan nan nan nan nan nan nan nan nan nan nan nan nan nan nan nan nan nan nan nan nan nan nan nan nan nan nan nan nan nan
nan nan nan nan nan nan nan nan nan nan nan nan nan nan nan nan nan nan nan nan nan nan nan nan nan nan nan nan nan nan nan nan
nan nan nan nan nan nan nan nan nan nan nan nan nan nan nan nan nan nan nan nan nan nan nan 246 243 nan nan nan nan nan nan nan
nan nan nan nan nan nan nan nan nan nan nan nan nan nan nan nan nan 248 250 253 253 247 nan nan 241 241 229 nan nan nan nan nan
nan nan nan nan nan nan nan nan nan nan nan nan nan nan nan 256 254 255 254 257 239 230 226 236 228 219 217 nan nan nan nan nan
nan nan nan nan nan nan nan nan nan nan nan nan nan nan nan nan 251 259 256 244 217 224 236 nan 222 226 234 nan nan nan nan nan
nan nan nan nan nan nan nan nan nan nan nan nan nan nan nan nan nan 253 235 231 223 220 226 241 nan nan nan nan nan nan nan nan
nan nan nan nan nan nan nan nan nan nan nan nan nan nan nan nan nan nan nan nan nan 236 242 244 247 nan nan nan nan nan nan nan
nan nan nan nan nan nan nan nan nan nan nan nan nan nan nan nan nan nan nan nan nan nan 249 253 259 259 nan nan nan nan nan nan